Location: Lafig�re
(44.4503°N, 4.0357°E)
Time: 15:47:01
(UTC+00:00)

Cosmos 1707 - Pass Details

Date: 24 September 2020
Orbit: 515 x 530 km, 82.5° (Epoch: 25 October)

Event Time Altitude Azimuth Distance (km) Brightness Sun altitude
Rises 18:00:00 0° 357° (N) 2,647 6.4 -4.9°
Reaches altitude 10° 18:02:13 10° 3° (N) 1,753 5.4 -5.3°
Maximum altitude 18:05:55 46° 78° (ENE) 705 3.0 -6.0°
Drops below altitude 10° 18:09:36 10° 152° (SSE) 1,738 5.1 -6.7°
Sets 18:11:47 0° 159° (SSE) 2,621 6.0 -7.0°
